STARLINK-35295, 66070

Orbit data source: Space-Track

STARLINK-35295, 66070 is a payload satellite owned by SpaceX/Seattle (US) in LEO that was launched on Sun, 19 Oct 2025 UTC via an FALCON 9 launch vehicle from the Air Force Eastern Test Range (AFETR). Payload-class satellites include a variety of spacecraft equipped with specific instruments for various scientific and technological missions. These include communications satellites like Starlink; space stations such as the ISS; scientific satellites like the Hubble; Earth observation satellites from companies like Planet Labs, Umbra, and HawkEye 360; GPS; miniature CubeSats for education and research; and military/defense satellites.

Loading next visibility...
Identifier
66070, 2025-235N
Orbit
LEO
Country
Flag of USUS
Related business
Manufacturer
SpaceX/Seattle
Mission
Operational Commercial Communications
Bus & Motor
STARLINK V2MO, Unknown motor
Mass
575 kg wet, ~530 kg dry
Launch date (UTC)
2025-10-19 (8 months ago)
Launch vehicle
FALCON 9
Launch site
Air Force Eastern Test Range (AFETR)
Object type
Payload
Rocket body
Debris
Shape & HBR
Box + 2 Pan, 17.7 m
Radar Cross Section
36.964 m², Large (>1 m²)

Expand to show TLE details & history
Last TLE update: 1 day ago

TLE from 1 day ago
0 STARLINK-35295
1 66070U 25235N   26170.62344956  .00015545  00000-0  53577-3 0  9991
2 66070  53.1602 132.1027 0001213  76.0622 284.0513 15.30205475 38527
Epoch: 2026-06-19T14:57Z
TLE epoch observation values (Epoch: 2026-06-19T14:57:46.041Z)
Latitude
-0.0001°
Longitude
-0.18898°
Altitude
475.897 km
Speed
7.629 km/s
True Right ascension
08h 48m 24s
True Declination
0° 00' 00"
Sunlit
Object was in daylight at epoch
Visualization orbit readout
Latitude
Unknown
Longitude
Unknown
Altitude
Unknown
Speed
Unknown
Apparent Right ascension
Unknown
Apparent Declination
Unknown
Sunlit
N/A
Visualization observer readout
Local Sidereal Time
07:19:14
Azimuth
Unknown
Elevation
Unknown
Doppler factor
Unknown
Orbital elements
Apogee altitude
476.286 km
Perigee altitude
474.624 km
Semi-major axis
6,853.592 km
Eccentricity
0.00012
Inclination
53.1602°
RAAN
132.1027°
Arg. of periapsis
76.0622°
True anomaly
284.03782°
Mean anomaly
284.0513°
Eccentric anomaly
284.04456°
Mean motion
3.8253 °/min
Orbital period
94.11 mins
BSTAR
0.00053577
Loading maneuver chart data...
Computing Atmospheric mass density...
Loading historical data...
Loading historical data...
Loading historical data...
Loading historical data...
Loading historical data...
Loading historical data...
Loading historical data...

Documentation

Showing up to 5 results
|